Hourly Weather Punta Gorda

Today, 8 July, Wednesday

Time Temperature Precipitation Wind Pressure Humidity
00:00 +26°C° 0 mm 2 mps 760 mmHg 96%
01:00 +26°C° 0.7 mm 2 mps 760 mmHg 96%
02:00 +26°C° 0.7 mm 2 mps 760 mmHg 96%
03:00 +26°C° 0.7 mm 2 mps 759 mmHg 96%
04:00 +26°C° 0.4 mm 2 mps 759 mmHg 96%
05:00 +26°C° 0.4 mm 2 mps 759 mmHg 96%
06:00 +26°C° 0.4 mm 2 mps 759 mmHg 96%
07:00 +27°C° 0.4 mm 2 mps 760 mmHg 94%
08:00 +28°C° 0.4 mm 2 mps 760 mmHg 91%
09:00 +29°C° 0.4 mm 2 mps 760 mmHg 89%
10:00 +31°C° 0.3 mm 2 mps 760 mmHg 81%
11:00 +33°C° 0.3 mm 3 mps 760 mmHg 74%
12:00 +34°C° 0.3 mm 3 mps 759 mmHg 67%
13:00 +34°C° 0 mm 3 mps 759 mmHg 64%
14:00 +34°C° 0 mm 4 mps 758 mmHg 62%
15:00 +35°C° 0 mm 4 mps 757 mmHg 60%
16:00 +34°C° 0 mm 4 mps 757 mmHg 65%
17:00 +32°C° 0 mm 4 mps 757 mmHg 71%
18:00 +30°C° 0 mm 4 mps 757 mmHg 77%
19:00 +29°C° 0 mm 3 mps 758 mmHg 83%
20:00 +28°C° 0 mm 3 mps 759 mmHg 89%
21:00 +27°C° 0 mm 3 mps 759 mmHg 96%
22:00 +27°C° 0.1 mm 3 mps 759 mmHg 96%
23:00 +26°C° 0.1 mm 2 mps 759 mmHg 96%

Tomorrow, 9 July, Thursday

Time Temperature Precipitation Wind Pressure Humidity
00:00 +26°C° 0.1 mm 2 mps 759 mmHg 97%
01:00 +26°C° 0.2 mm 2 mps 759 mmHg 97%
02:00 +26°C° 0.2 mm 2 mps 758 mmHg 97%
03:00 +26°C° 0.2 mm 2 mps 758 mmHg 97%
04:00 +26°C° 0.3 mm 2 mps 758 mmHg 97%
05:00 +26°C° 0.3 mm 1 mps 758 mmHg 96%
06:00 +26°C° 0.3 mm 1 mps 758 mmHg 96%
07:00 +27°C° 0.4 mm 2 mps 759 mmHg 90%
08:00 +29°C° 0.4 mm 2 mps 759 mmHg 84%
09:00 +30°C° 0.4 mm 2 mps 759 mmHg 78%
10:00 +31°C° 0.1 mm 3 mps 759 mmHg 71%
11:00 +34°C° 0.1 mm 3 mps 759 mmHg 65%
12:00 +35°C° 0.1 mm 4 mps 758 mmHg 58%
13:00 +35°C° 0 mm 4 mps 758 mmHg 57%
14:00 +35°C° 0 mm 4 mps 757 mmHg 56%
15:00 +35°C° 0 mm 5 mps 757 mmHg 55%
16:00 +34°C° 0 mm 4 mps 757 mmHg 61%
17:00 +32°C° 0 mm 4 mps 757 mmHg 66%
18:00 +30°C° 0 mm 4 mps 757 mmHg 72%
19:00 +29°C° 0 mm 3 mps 758 mmHg 79%
20:00 +27°C° 0 mm 3 mps 758 mmHg 85%
21:00 +26°C° 0 mm 3 mps 759 mmHg 92%
22:00 +26°C° 0.1 mm 2 mps 759 mmHg 92%
23:00 +26°C° 0.1 mm 2 mps 759 mmHg 93%

Day after tomorrow, 10 July, Friday

Time Temperature Precipitation Wind Pressure Humidity
00:00 +26°C° 0.1 mm 2 mps 759 mmHg 93%
01:00 +26°C° 0.9 mm 2 mps 759 mmHg 94%
02:00 +25°C° 0.9 mm 2 mps 759 mmHg 95%
03:00 +25°C° 0.9 mm 1 mps 758 mmHg 95%
04:00 +26°C° 0.1 mm 1 mps 758 mmHg 94%
05:00 +26°C° 0.1 mm 1 mps 759 mmHg 93%
06:00 +26°C° 0.1 mm 1 mps 759 mmHg 93%
07:00 +27°C° 0.5 mm 1 mps 759 mmHg 89%
08:00 +28°C° 0.5 mm 1 mps 760 mmHg 86%
09:00 +30°C° 0.5 mm 1 mps 760 mmHg 82%
10:00 +31°C° 0.2 mm 2 mps 760 mmHg 75%
11:00 +33°C° 0.2 mm 3 mps 760 mmHg 67%
12:00 +35°C° 0.2 mm 4 mps 759 mmHg 59%
13:00 +35°C° 0 mm 4 mps 759 mmHg 58%
14:00 +35°C° 0 mm 4 mps 758 mmHg 57%
15:00 +35°C° 0 mm 5 mps 758 mmHg 56%
16:00 +34°C° 0.1 mm 5 mps 758 mmHg 63%
17:00 +33°C° 0.1 mm 5 mps 758 mmHg 69%
18:00 +30°C° 0.1 mm 5 mps 759 mmHg 76%
19:00 +29°C° 0.9 mm 4 mps 759 mmHg 83%
20:00 +28°C° 0.9 mm 4 mps 760 mmHg 89%
21:00 +27°C° 0.9 mm 3 mps 760 mmHg 96%
22:00 +27°C° 1.5 mm 3 mps 760 mmHg 96%
23:00 +27°C° 1.5 mm 3 mps 760 mmHg 97%

11 July, Saturday

Time Temperature Precipitation Wind Pressure Humidity
00:00 +26°C° 1.5 mm 3 mps 760 mmHg 97%
01:00 +26°C° 0.5 mm 3 mps 760 mmHg 97%
02:00 +26°C° 0.5 mm 3 mps 759 mmHg 97%
03:00 +26°C° 0.5 mm 3 mps 759 mmHg 97%
04:00 +26°C° 0.2 mm 2 mps 759 mmHg 97%
05:00 +26°C° 0.2 mm 2 mps 759 mmHg 97%
06:00 +26°C° 0.2 mm 2 mps 759 mmHg 97%
07:00 +28°C° 0.1 mm 2 mps 759 mmHg 88%
08:00 +30°C° 0.1 mm 2 mps 760 mmHg 80%
09:00 +31°C° 0.1 mm 2 mps 760 mmHg 71%
10:00 +33°C° 0.1 mm 3 mps 760 mmHg 67%
11:00 +34°C° 0.1 mm 3 mps 760 mmHg 63%
12:00 +35°C° 0.1 mm 4 mps 759 mmHg 59%
13:00 +35°C° 0.1 mm 4 mps 759 mmHg 57%
14:00 +35°C° 0.1 mm 5 mps 758 mmHg 55%
15:00 +35°C° 0.1 mm 5 mps 758 mmHg 53%
16:00 +34°C° 0 mm 5 mps 758 mmHg 59%
17:00 +33°C° 0 mm 5 mps 758 mmHg 65%
18:00 +30°C° 0 mm 4 mps 758 mmHg 71%
19:00 +29°C° 0.3 mm 4 mps 759 mmHg 78%
20:00 +28°C° 0.3 mm 4 mps 760 mmHg 85%
21:00 +27°C° 0.3 mm 4 mps 760 mmHg 91%
22:00 +26°C° 0.5 mm 4 mps 760 mmHg 93%
23:00 +26°C° 0.5 mm 3 mps 760 mmHg 94%

12 July, Sunday

Time Temperature Precipitation Wind Pressure Humidity
00:00 +26°C° 0.5 mm 3 mps 760 mmHg 95%
01:00 +26°C° 0.4 mm 3 mps 760 mmHg 95%
02:00 +25°C° 0.4 mm 2 mps 759 mmHg 95%
03:00 +25°C° 0.4 mm 2 mps 759 mmHg 96%
04:00 +25°C° 0.3 mm 2 mps 759 mmHg 96%
05:00 +26°C° 0.3 mm 2 mps 759 mmHg 96%
06:00 +26°C° 0.3 mm 1 mps 759 mmHg 96%
07:00 +27°C° 0.3 mm 1 mps 760 mmHg 92%
08:00 +28°C° 0.3 mm 1 mps 760 mmHg 87%
09:00 +30°C° 0.3 mm 1 mps 760 mmHg 83%
10:00 +31°C° 0.1 mm 2 mps 760 mmHg 73%
11:00 +34°C° 0.1 mm 2 mps 759 mmHg 63%
12:00 +35°C° 0.1 mm 3 mps 759 mmHg 53%
13:00 +35°C° 0 mm 3 mps 758 mmHg 52%
14:00 +35°C° 0 mm 4 mps 758 mmHg 50%
15:00 +35°C° 0 mm 5 mps 757 mmHg 49%
16:00 +34°C° 0 mm 5 mps 758 mmHg 57%
17:00 +32°C° 0 mm 4 mps 758 mmHg 65%
18:00 +30°C° 0 mm 4 mps 758 mmHg 73%
19:00 +29°C° 0.2 mm 4 mps 759 mmHg 80%
20:00 +27°C° 0.2 mm 3 mps 759 mmHg 87%
21:00 +26°C° 0.2 mm 3 mps 760 mmHg 94%
22:00 +26°C° 0.5 mm 3 mps 760 mmHg 94%
23:00 +26°C° 0.5 mm 2 mps 760 mmHg 94%

13 July, Monday

Time Temperature Precipitation Wind Pressure Humidity
00:00 +26°C° 0.5 mm 2 mps 760 mmHg 94%
01:00 +25°C° 0.4 mm 2 mps 760 mmHg 95%
02:00 +25°C° 0.4 mm 1 mps 759 mmHg 96%
03:00 +25°C° 0.4 mm 1 mps 759 mmHg 96%
04:00 +25°C° 0.2 mm 1 mps 759 mmHg 96%
05:00 +25°C° 0.2 mm 1 mps 759 mmHg 96%
06:00 +25°C° 0.2 mm 1 mps 759 mmHg 96%
07:00 +27°C° 0.2 mm 1 mps 760 mmHg 88%
08:00 +29°C° 0.2 mm 1 mps 760 mmHg 81%
09:00 +31°C° 0.2 mm 1 mps 760 mmHg 73%
10:00 +32°C° 0.3 mm 2 mps 760 mmHg 68%
11:00 +34°C° 0.3 mm 3 mps 759 mmHg 63%
12:00 +35°C° 0.3 mm 4 mps 759 mmHg 58%
13:00 +35°C° 0 mm 4 mps 759 mmHg 56%
14:00 +35°C° 0 mm 4 mps 758 mmHg 53%
15:00 +35°C° 0 mm 5 mps 757 mmHg 50%
16:00 +34°C° 0 mm 5 mps 758 mmHg 57%
17:00 +33°C° 0 mm 4 mps 758 mmHg 64%
18:00 +30°C° 0 mm 4 mps 758 mmHg 71%
19:00 +29°C° 0.2 mm 4 mps 759 mmHg 78%
20:00 +28°C° 0.2 mm 4 mps 759 mmHg 86%
21:00 +27°C° 0.2 mm 4 mps 760 mmHg 93%
22:00 +27°C° 0.8 mm 3 mps 760 mmHg 94%
23:00 +26°C° 0.8 mm 3 mps 760 mmHg 94%
Show more